User: anonymous   Login
Location: ??????
(55.0357°N, 38.6195°E)
Time: 23:58:52
(UTC+00:00)
Language:

EO 1 Delta rocket - Orbit

View from above orbital plane
View from above orbital plane
View from above satellite
View from above satellite

Ground track
Ground track

The orbit data is extracted from the following two-line orbital elements,

1 26622U 00075D   24175.41292215  .00000164  00000-0  16300-3 0  9999
2 26622  95.4357 102.8992 0715226 311.4008 164.8036 13.04772748122875
Epoch (UTC): 23 June 2024 09:54:36
Eccentricity: 0.0715226
inclination: 95.4357°
perigee height: 698 km
apogee height: 1788 km
right ascension of ascending node: 102.8992°
argument of perigee: 311.4008°
revolutions per day: 13.04772748
mean anomaly at epoch: 164.8036°
orbit number at epoch: 12287

The dashed part of the orbit path shows where the satellite is in the earth's shadow,  

DLR